Torna al catalogo

CZ-4B DEB

AttivoPO
NORAD 39052·DEBRIS·🇨🇳 China

Lanciato Oct 14, 1999 da Taiyuan Satellite Launch Center

Loading…

Prossimi Passaggi (prossime 24 ore)

TLE

AggiornatoSource: Space-Track

Epoca: Sep 14, 2026, 08:40 UTC

1 39052U 99057SZ  26257.36171028  .00000915  00000-0  85470-4 0  9992
2 39052  98.7320 303.7587 0057968 102.9840 257.7859 14.95956027752131

Traccia CZ-4B DEB in tempo reale con AllMySat

Download on the App Store